Owensboro, KY

11:39 PM CDT on August 21, 2017 (GMT -0500)
Owensboro-Daviess County

Weather History for KOWB - September, 2013

Change the Weather History Date:

Friday, September 13, 2013

  Actual Average Record
Temperature  
Mean Temperature 64 °F -  
Max Temperature 70 °F 84 °F 98 °F (1962)
Min Temperature 57 °F 60 °F 40 °F (1940)
Growing Degree Days 14 (Base 50)    
Moisture  
Dew Point 52 °F    
Average Humidity 63    
Maximum Humidity 83    
Minimum Humidity 44    
Precipitation  
Precipitation 0.00 in - - ()
Sea Level Pressure  
Sea Level Pressure 30.04 in    
Wind  
Wind Speed 8 mph (NNE)    
Max Wind Speed 13 mph    
Max Gust Speed 18 mph    
Visibility 10 miles    
Events      
Averages and records for this station are not official NWS values.
T = Trace of Precipitation, MM = Missing Value Source: NWS Daily Summary

Daily Weather History Graph

Daily Weather History Graph

Search for Another Location

Airport or City:

Trip Planner

Search our weather history database for the weather conditions in past years. The results will help you decide how hot, cold, wet, or windy it might be!

Date:

Astronomy

Sep. 13, 2013 Rise Set
Actual Time 6:29 AM CDT 6:59 PM CDT
Civil Twilight 6:02 AM CDT 7:25 PM CDT
Nautical Twilight 5:31 AM CDT 7:56 PM CDT
Astronomical Twilight 4:59 AM CDT 8:28 PM CDT
Moon 2:44 PM CDT (9/13) 12:02 AM CDT (9/13)
Length of Visible Light 13h 22m
Length of Day
12h 30m
First Quarter, 61% of the Moon is Illuminated
Sep 13
First Quarter
Sep 19
Full
Sep 26
Last Quarter
Oct 4
New
Oct 11
First Quarter

Hourly Weather History & Observations

Time (CDT) Temp. Dew Point Humidity Pressure Visibility Wind Dir Wind Speed Gust Speed Precip Events Conditions
12:56 AM 68.0 °F 59.0 °F 73% 29.98 in 10.0 mi North 6.9 mph - N/A   Clear
1:56 AM 65.8 °F 57.9 °F 76% 29.99 in 10.0 mi North 5.8 mph - N/A   Clear
2:56 AM 64.9 °F 55.9 °F 73% 29.99 in 10.0 mi NNE 5.8 mph - N/A   Clear
3:56 AM 63.0 °F 54.9 °F 75% 30.00 in 10.0 mi NNE 8.1 mph - N/A   Clear
4:56 AM 61.9 °F 54.9 °F 78% 30.01 in 10.0 mi NNE 8.1 mph - N/A   Clear
5:56 AM 59.9 °F 54.9 °F 83% 30.03 in 10.0 mi NNE 8.1 mph - N/A   Clear
6:56 AM 59.9 °F 54.9 °F 83% 30.06 in 10.0 mi North 8.1 mph - N/A   Clear
7:56 AM 61.9 °F 55.9 °F 81% 30.06 in 10.0 mi North 6.9 mph - N/A   Clear
8:56 AM 64.9 °F 55.9 °F 73% 30.07 in 10.0 mi ENE 12.7 mph - N/A   Clear
9:56 AM 68.0 °F 54.0 °F 61% 30.08 in 10.0 mi NE 9.2 mph 17.3 mph N/A   Partly Cloudy
10:56 AM 68.0 °F 52.0 °F 56% 30.09 in 10.0 mi NE 12.7 mph 18.4 mph N/A   Scattered Clouds
11:56 AM 70.0 °F 52.0 °F 53% 30.07 in 10.0 mi North 9.2 mph 16.1 mph N/A   Mostly Cloudy
12:56 PM 70.9 °F 50.0 °F 48% 30.06 in 10.0 mi North 10.4 mph 18.4 mph N/A   Scattered Clouds
1:56 PM 70.9 °F 48.9 °F 46% 30.05 in 10.0 mi North 12.7 mph 17.3 mph N/A   Scattered Clouds
2:56 PM 70.0 °F 47.8 °F 45% 30.03 in 10.0 mi North 10.4 mph - N/A   Mostly Cloudy
3:56 PM 68.9 °F 45.9 °F 44% 30.04 in 10.0 mi NE 9.2 mph - N/A   Scattered Clouds
4:56 PM 68.9 °F 45.9 °F 44% 30.04 in 10.0 mi NNE 9.2 mph - N/A   Scattered Clouds
5:56 PM 68.9 °F 46.9 °F 45% 30.04 in 10.0 mi NNE 10.4 mph - N/A   Clear
6:56 PM 65.8 °F 46.9 °F 50% 30.04 in 10.0 mi NNE 6.9 mph - N/A   Partly Cloudy
7:56 PM 63.9 °F 47.8 °F 56% 30.05 in 10.0 mi NNE 4.6 mph - N/A   Clear
8:56 PM 61.9 °F 48.9 °F 62% 30.06 in 10.0 mi NE 6.9 mph - N/A   Clear
9:56 PM 61.0 °F 48.9 °F 64% 30.07 in 10.0 mi NE 4.6 mph - N/A   Clear
10:56 PM 59.9 °F 48.9 °F 67% 30.08 in 10.0 mi NE 4.6 mph - N/A   Clear
11:56 PM 57.9 °F 48.9 °F 72% 30.08 in 10.0 mi NNE 4.6 mph - N/A   Clear